SAS63A ESGG-ESSA

Flight info

Callsign SAS63A
Flight time 0h 40m
Altitude 29000
Route LABAN N873 ARS T317 ELTOK
Aircraft A320/M-SDE3FGHIJ1RWXYZ/ALB1

Departure

Time 2026-05-07 14:45
Airport Göteborg Landvetter Airport (ESGG)

Arrival

Time 2026-05-07 15:25
Airport Stockholm-Arlanda Airport (ESSA)
Time Latitude Longitude Altitude Speed Heading
2026-05-07 14:16 57.66848 12.29375 516 ft 0 kts 116°
2026-05-07 14:21 57.66848 12.29374 516 ft 0 kts 116°
2026-05-07 14:25 57.66849 12.29374 516 ft 0 kts 116°
2026-05-07 14:36 57.66852 12.29360 516 ft 4 kts 116°
2026-05-07 14:36 57.66861 12.29326 516 ft 4 kts 104°
2026-05-07 14:36 57.66863 12.29289 516 ft 3 kts 121°
2026-05-07 14:36 57.66876 12.29264 516 ft 4 kts 189°
2026-05-07 14:37 57.66899 12.29280 516 ft 4 kts 206°
2026-05-07 14:37 57.66903 12.29284 516 ft 0 kts 206°
2026-05-07 14:38 57.66904 12.29284 516 ft 0 kts 206°
2026-05-07 14:39 57.66903 12.29284 516 ft 0 kts 206°
2026-05-07 14:39 57.66901 12.29281 516 ft 1 kts 206°
2026-05-07 14:39 57.66900 12.29281 516 ft 0 kts 206°
2026-05-07 14:40 57.66891 12.29272 516 ft 4 kts 206°
2026-05-07 14:40 57.66858 12.29240 516 ft 7 kts 207°
2026-05-07 14:40 57.66809 12.29196 516 ft 9 kts 206°
2026-05-07 14:40 57.66776 12.29104 516 ft 10 kts 282°
2026-05-07 14:41 57.66823 12.28997 516 ft 12 kts 348°
2026-05-07 14:41 57.66908 12.29058 516 ft 14 kts 26°
2026-05-07 14:41 57.66999 12.29144 516 ft 15 kts 27°
2026-05-07 14:41 57.67093 12.29232 516 ft 15 kts 25°
2026-05-07 14:42 57.67191 12.29318 516 ft 16 kts 26°
2026-05-07 14:42 57.67292 12.29412 516 ft 17 kts 27°
2026-05-07 14:42 57.67392 12.29489 516 ft 11 kts 341°
2026-05-07 14:42 57.67441 12.29359 516 ft 14 kts 297°
2026-05-07 14:43 57.67458 12.29174 514 ft 16 kts 267°
2026-05-07 14:43 57.67432 12.29030 515 ft 9 kts 208°
2026-05-07 14:43 57.67398 12.28995 515 ft 1 kts 206°
2026-05-07 14:43 57.67383 12.28982 515 ft 4 kts 206°
2026-05-07 14:44 57.67334 12.28937 515 ft 24 kts 206°
2026-05-07 14:44 57.66953 12.28589 513 ft 94 kts 206°
2026-05-07 14:44 57.66194 12.27899 510 ft 146 kts 206°
2026-05-07 14:44 57.65179 12.26998 730 ft 170 kts 210°
2026-05-07 14:45 57.64088 12.26010 1247 ft 184 kts 210°
2026-05-07 14:45 57.62850 12.25014 1679 ft 207 kts 192°
2026-05-07 14:45 57.61414 12.25437 2348 ft 213 kts 158°
2026-05-07 14:45 57.60015 12.26601 3079 ft 223 kts 156°
2026-05-07 14:46 57.58599 12.27770 3956 ft 223 kts 156°
2026-05-07 14:46 57.57323 12.29358 4803 ft 223 kts 127°
2026-05-07 14:46 57.56744 12.32009 5495 ft 231 kts 92°
2026-05-07 14:46 57.57081 12.35052 5880 ft 254 kts 69°
2026-05-07 14:47 57.57746 12.38214 6504 ft 268 kts 67°
2026-05-07 14:47 57.58465 12.41460 7284 ft 274 kts 67°
2026-05-07 14:47 57.59205 12.44778 8077 ft 281 kts 66°
2026-05-07 14:47 57.59957 12.48203 8823 ft 288 kts 67°
2026-05-07 14:48 57.60713 12.51699 9661 ft 293 kts 67°
2026-05-07 14:48 57.61513 12.55222 10427 ft 297 kts 60°
2026-05-07 14:48 57.62671 12.58516 10813 ft 314 kts 47°
2026-05-07 14:48 57.64248 12.61520 11100 ft 332 kts 43°
2026-05-07 14:49 57.65899 12.64616 11709 ft 339 kts 43°
2026-05-07 14:49 57.67572 12.67771 12400 ft 344 kts 43°
2026-05-07 14:49 57.69261 12.70964 13130 ft 348 kts 43°
2026-05-07 14:49 57.70969 12.74205 13854 ft 351 kts 43°
2026-05-07 14:50 57.72694 12.77482 14481 ft 356 kts 43°
2026-05-07 14:50 57.74440 12.80798 15093 ft 360 kts 43°
2026-05-07 14:50 57.76203 12.84142 15699 ft 363 kts 43°
2026-05-07 14:50 57.77990 12.87535 16310 ft 367 kts 43°
2026-05-07 14:51 57.79794 12.90962 16913 ft 371 kts 43°
2026-05-07 14:51 57.81616 12.94424 17525 ft 375 kts 43°
2026-05-07 14:51 57.83455 12.97927 18121 ft 380 kts 43°
2026-05-07 14:51 57.85320 13.01487 18666 ft 384 kts 43°
2026-05-07 14:52 57.87197 13.05081 19221 ft 388 kts 43°
2026-05-07 14:52 57.89091 13.08722 19787 ft 391 kts 43°
2026-05-07 14:52 57.90998 13.12394 20355 ft 394 kts 43°
2026-05-07 14:52 57.92921 13.16089 20904 ft 397 kts 43°
2026-05-07 14:53 57.94867 13.19825 21456 ft 401 kts 42°
2026-05-07 14:53 57.96823 13.23593 21996 ft 404 kts 42°
2026-05-07 14:53 57.98799 13.27415 22312 ft 414 kts 43°
2026-05-07 14:53 58.00842 13.31367 22451 ft 426 kts 43°
2026-05-07 14:54 58.02939 13.35433 22589 ft 438 kts 43°
2026-05-07 14:54 58.05085 13.39603 22730 ft 448 kts 43°
2026-05-07 14:54 58.07277 13.43858 22870 ft 456 kts 43°
2026-05-07 14:54 58.09503 13.48198 23010 ft 464 kts 43°
2026-05-07 14:55 58.11765 13.52627 23148 ft 471 kts 43°
2026-05-07 14:55 58.14050 13.57112 23286 ft 477 kts 43°
2026-05-07 14:55 58.16362 13.61660 23502 ft 480 kts 43°
2026-05-07 14:55 58.18679 13.66227 23838 ft 481 kts 43°
2026-05-07 14:56 58.20995 13.70796 24186 ft 480 kts 43°
2026-05-07 14:56 58.23307 13.75368 24564 ft 480 kts 43°
2026-05-07 14:56 58.25612 13.79932 24955 ft 479 kts 43°
2026-05-07 14:56 58.27913 13.84494 25373 ft 477 kts 43°
2026-05-07 14:57 58.30210 13.89048 25772 ft 477 kts 43°
2026-05-07 14:57 58.32507 13.93612 26176 ft 477 kts 43°
2026-05-07 14:57 58.34824 13.98228 26611 ft 476 kts 43°
2026-05-07 14:57 58.37075 14.02720 27049 ft 475 kts 43°
2026-05-07 14:58 58.39349 14.07264 27496 ft 473 kts 42°
2026-05-07 14:58 58.41617 14.11806 27956 ft 472 kts 42°
2026-05-07 14:58 58.43877 14.16340 28425 ft 471 kts 42°
2026-05-07 14:58 58.46130 14.20878 28898 ft 470 kts 42°
2026-05-07 14:59 58.47649 14.23946 29032 ft 470 kts 42°
2026-05-07 14:59 58.49894 14.28488 29089 ft 469 kts 42°
2026-05-07 14:59 58.54378 14.37582 29080 ft 471 kts 42°
2026-05-07 15:00 58.58869 14.46715 29090 ft 471 kts 42°
2026-05-07 15:00 58.63358 14.55890 29091 ft 471 kts 42°
2026-05-07 15:01 58.67835 14.65079 29087 ft 470 kts 43°
2026-05-07 15:01 58.72302 14.74276 29086 ft 470 kts 43°
2026-05-07 15:02 58.76760 14.83492 29106 ft 471 kts 42°
2026-05-07 15:02 58.81223 14.92741 29083 ft 472 kts 42°
2026-05-07 15:03 58.85765 15.02182 29085 ft 487 kts 42°
2026-05-07 15:03 58.90389 15.11849 29084 ft 491 kts 43°
2026-05-07 15:04 58.95009 15.21590 29070 ft 491 kts 43°
2026-05-07 15:04 58.99622 15.31361 29084 ft 492 kts 42°
2026-05-07 15:05 59.01928 15.36253 28760 ft 490 kts 42°
2026-05-07 15:05 59.04190 15.41070 28477 ft 475 kts 42°
2026-05-07 15:05 59.06380 15.45747 28197 ft 461 kts 42°
2026-05-07 15:05 59.08510 15.50293 27917 ft 449 kts 42°
2026-05-07 15:06 59.10589 15.54727 27645 ft 438 kts 42°
2026-05-07 15:06 59.12621 15.59063 27381 ft 429 kts 42°
2026-05-07 15:06 59.14607 15.63315 27117 ft 421 kts 42°
2026-05-07 15:06 59.16565 15.67516 26703 ft 418 kts 42°
2026-05-07 15:07 59.18513 15.71703 26278 ft 416 kts 42°
2026-05-07 15:07 59.20450 15.75870 25843 ft 414 kts 42°
2026-05-07 15:07 59.22384 15.80037 25409 ft 414 kts 42°
2026-05-07 15:07 59.24320 15.84220 24935 ft 415 kts 42°
2026-05-07 15:08 59.26253 15.88404 24468 ft 415 kts 42°
2026-05-07 15:08 59.28184 15.92590 24001 ft 415 kts 43°
2026-05-07 15:08 59.30117 15.96789 23577 ft 414 kts 43°
2026-05-07 15:08 59.32038 16.00981 23022 ft 414 kts 43°
2026-05-07 15:09 59.33937 16.05136 22728 ft 407 kts 43°
2026-05-07 15:09 59.35817 16.09262 22248 ft 405 kts 43°
2026-05-07 15:09 59.37684 16.13362 21785 ft 402 kts 43°
2026-05-07 15:09 59.39540 16.17448 21351 ft 399 kts 43°
2026-05-07 15:10 59.41375 16.21500 20909 ft 396 kts 44°
2026-05-07 15:10 59.43147 16.25635 20460 ft 395 kts 46°
2026-05-07 15:10 59.44848 16.29845 20031 ft 392 kts 48°
2026-05-07 15:10 59.46509 16.34093 19577 ft 390 kts 48°
2026-05-07 15:11 59.48146 16.38328 19136 ft 388 kts 49°
2026-05-07 15:11 59.49775 16.42542 18705 ft 385 kts 49°
2026-05-07 15:11 59.51395 16.46705 18261 ft 382 kts 48°
2026-05-07 15:11 59.53021 16.50841 17571 ft 384 kts 48°
2026-05-07 15:12 59.54663 16.54997 17031 ft 384 kts 48°
2026-05-07 15:12 59.56304 16.59150 16408 ft 384 kts 48°
2026-05-07 15:12 59.57948 16.63254 15891 ft 380 kts 45°
2026-05-07 15:12 59.59855 16.66766 15413 ft 369 kts 32°
2026-05-07 15:13 59.61926 16.69706 14947 ft 365 kts 31°
2026-05-07 15:13 59.63982 16.72622 14472 ft 362 kts 31°
2026-05-07 15:13 59.65947 16.75702 14008 ft 362 kts 42°
2026-05-07 15:13 59.67422 16.79779 13316 ft 371 kts 62°
2026-05-07 15:14 59.68150 16.84687 12707 ft 373 kts 78°
2026-05-07 15:14 59.68605 16.89727 12150 ft 370 kts 79°
2026-05-07 15:14 59.69048 16.94724 11626 ft 366 kts 79°
2026-05-07 15:14 59.69486 16.99706 10872 ft 368 kts 79°
2026-05-07 15:15 59.69919 17.04653 10386 ft 355 kts 79°
2026-05-07 15:15 59.70321 17.09277 10242 ft 327 kts 80°
2026-05-07 15:15 59.70691 17.13541 10086 ft 304 kts 79°
2026-05-07 15:15 59.71198 17.17526 9599 ft 294 kts 73°
2026-05-07 15:16 59.71771 17.21374 9013 ft 289 kts 72°
2026-05-07 15:16 59.72342 17.25172 8415 ft 286 kts 72°
2026-05-07 15:16 59.72906 17.28942 8005 ft 285 kts 72°
2026-05-07 15:16 59.73462 17.32690 7708 ft 282 kts 72°
2026-05-07 15:17 59.74014 17.36408 7381 ft 281 kts 72°
2026-05-07 15:17 59.74563 17.40107 7066 ft 279 kts 72°
2026-05-07 15:17 59.75111 17.43794 6745 ft 278 kts 73°
2026-05-07 15:17 59.75655 17.47454 6432 ft 276 kts 72°
2026-05-07 15:18 59.76198 17.51094 6105 ft 275 kts 73°
2026-05-07 15:18 59.76737 17.54717 5757 ft 274 kts 73°
2026-05-07 15:18 59.77273 17.58327 5428 ft 272 kts 73°
2026-05-07 15:18 59.77809 17.61918 5106 ft 271 kts 72°
2026-05-07 15:19 59.78341 17.65497 4777 ft 270 kts 72°
2026-05-07 15:19 59.78728 17.69125 4451 ft 269 kts 85°
2026-05-07 15:19 59.78832 17.72819 4186 ft 265 kts 88°
2026-05-07 15:19 59.78894 17.76383 4048 ft 250 kts 88°
2026-05-07 15:20 59.78946 17.79741 3768 ft 238 kts 88°
2026-05-07 15:20 59.78993 17.83014 3479 ft 236 kts 88°
2026-05-07 15:20 59.79040 17.86250 3206 ft 233 kts 88°
2026-05-07 15:20 59.79087 17.89463 2938 ft 231 kts 88°
2026-05-07 15:21 59.79132 17.92600 2736 ft 224 kts 88°
2026-05-07 15:21 59.79165 17.95679 2551 ft 223 kts 92°
2026-05-07 15:21 59.78709 17.98565 2518 ft 222 kts 127°
2026-05-07 15:21 59.77553 18.00526 2514 ft 219 kts 159°
2026-05-07 15:22 59.76097 18.00672 2409 ft 212 kts 199°
2026-05-07 15:22 59.74746 17.99539 2123 ft 210 kts 197°
2026-05-07 15:22 59.73344 17.98926 1844 ft 201 kts 189°
2026-05-07 15:22 59.71998 17.98462 1576 ft 192 kts 189°
2026-05-07 15:23 59.70708 17.98003 1316 ft 185 kts 189°
2026-05-07 15:23 59.69485 17.97560 1091 ft 173 kts 189°
2026-05-07 15:23 59.68332 17.97141 823 ft 161 kts 191°
2026-05-07 15:23 59.67280 17.96759 641 ft 147 kts 191°
2026-05-07 15:24 59.66314 17.96410 451 ft 138 kts 192°
2026-05-07 15:24 59.65392 17.96074 268 ft 132 kts 191°
2026-05-07 15:24 59.64493 17.95753 133 ft 127 kts 192°
2026-05-07 15:24 59.63736 17.95475 116 ft 90 kts 191°
2026-05-07 15:25 59.63286 17.95310 125 ft 40 kts 191°
2026-05-07 15:25 59.63090 17.95220 133 ft 25 kts 201°
2026-05-07 15:25 59.62957 17.95071 136 ft 20 kts 216°
2026-05-07 15:25 59.62861 17.94918 137 ft 17 kts 227°
2026-05-07 15:26 59.62888 17.94761 137 ft 14 kts 357°
2026-05-07 15:26 59.63002 17.94798 134 ft 19 kts 11°
2026-05-07 15:26 59.63148 17.94853 126 ft 24 kts 10°
2026-05-07 15:26 59.63296 17.94903 122 ft 21 kts 12°
2026-05-07 15:27 59.63453 17.94962 119 ft 24 kts 12°
2026-05-07 15:27 59.63617 17.95028 114 ft 25 kts 14°
2026-05-07 15:27 59.63777 17.95080 111 ft 24 kts 12°
2026-05-07 15:27 59.63943 17.95168 107 ft 26 kts 18°
2026-05-07 15:28 59.64084 17.95205 106 ft 14 kts 355°
2026-05-07 15:28 59.64182 17.95227 107 ft 14 kts
2026-05-07 15:28 59.64283 17.95266 106 ft 15 kts 11°
2026-05-07 15:28 59.64392 17.95303 106 ft 16 kts 10°
2026-05-07 15:29 59.64506 17.95346 105 ft 17 kts 11°
2026-05-07 15:29 59.64627 17.95389 105 ft 18 kts 10°
2026-05-07 15:29 59.64748 17.95434 106 ft 17 kts
2026-05-07 15:29 59.64866 17.95475 108 ft 17 kts 10°
2026-05-07 15:30 59.64976 17.95513 112 ft 15 kts
2026-05-07 15:30 59.65065 17.95501 112 ft 11 kts 349°
2026-05-07 15:30 59.65134 17.95467 117 ft 9 kts 345°
2026-05-07 15:30 59.65181 17.95443 119 ft 7 kts 346°
2026-05-07 15:31 59.65238 17.95414 121 ft 12 kts 347°
2026-05-07 15:31 59.65337 17.95360 127 ft 18 kts 345°
2026-05-07 15:31 59.65484 17.95282 127 ft 23 kts 345°
2026-05-07 15:31 59.65642 17.95198 127 ft 24 kts 346°
2026-05-07 15:32 59.65749 17.95042 123 ft 20 kts 282°
2026-05-07 15:32 59.65720 17.94790 122 ft 20 kts 257°
2026-05-07 15:32 59.65689 17.94526 122 ft 16 kts 255°
2026-05-07 15:32 59.65660 17.94308 124 ft 17 kts 256°
2026-05-07 15:33 59.65634 17.94107 121 ft 17 kts 255°
2026-05-07 15:33 59.65600 17.93844 113 ft 23 kts 253°
2026-05-07 15:33 59.65561 17.93523 112 ft 25 kts 258°
2026-05-07 15:33 59.65523 17.93243 112 ft 15 kts 249°
2026-05-07 15:34 59.65438 17.93219 112 ft 13 kts 143°
2026-05-07 15:34 59.65370 17.93272 112 ft 7 kts 165°
2026-05-07 15:34 59.65319 17.93303 112 ft 7 kts 162°
2026-05-07 15:34 59.65296 17.93246 111 ft 6 kts 251°
2026-05-07 15:35 59.65285 17.93184 112 ft 3 kts 251°
2026-05-07 15:35 59.65283 17.93171 110 ft 0 kts 251°